Zarechensk — ONGC — position and weather

sailwx.info

Track history (hours):
 
Tides and Currents Weather Stations Pressure Air Temp Water Temp Dewpoint Dewpoint Depression Visibility Wind Speed Wind Dir Waves Ship Positions

Zarechensk

Last reported at 2014-Jul-23 03:18 UTC. Time now 2014-Jul-23 22:09 UTC.
Position N 40°53' E 028°39'.

Length 180 m; draft 9.8 m.

MMSI: 205561000.

Date/timePositionNaut miles runAvg speedWind from/ knotsBaromVisibWave heightAir tempDewpointWater temp
2014-Jul-23 03:18N 40°53' E 028°39'1111.5
2014-Jul-23 02:18N 40°56' E 028°53'3 4.4
2014-Jul-23 01:33N 40°58' E 028°57'232 8.2
2014-Jul-21 21:24N 44°40' E 030°28'910.9
2014-Jul-21 20:33N 44°49' E 030°32'310.9
2014-Jul-21 20:18N 44°51' E 030°33'810.8
2014-Jul-21 19:33N 44°59' E 030°36'1110.7
2014-Jul-21 18:33N 45°09' E 030°40'1111.0
2014-Jul-21 17:33N 45°20' E 030°45'4911.0
2014-Jul-21 13:05N 46°08' E 031°04'37 6.5
2014-Jul-21 07:24N 46°36' E 031°39'910.2
2014-Jul-21 06:33N 46°37' E 031°51'8 8.2
2014-Jul-21 05:33N 46°44' E 031°55'5 0.9
2014-Jul-20 23:29N 46°50' E 031°56'0 0.0
2014-Jul-20 22:32N 46°50' E 031°55'0 0.1
2014-Jul-20 21:32N 46°50' E 031°56'0 0.1
2014-Jul-20 20:32N 46°50' E 031°56'0 0.0
2014-Jul-20 19:32N 46°50' E 031°56'1 1.5
2014-Jul-20 18:33N 46°51' E 031°57'1 1.1
2014-Jul-20 17:33N 46°51' E 031°59'0 0.0
2014-Jul-20 14:16N 46°51' E 031°59'0 0.0
2014-Jul-20 13:31N 46°51' E 031°59'0 0.0
2014-Jul-20 12:31N 46°51' E 031°59'0 0.0
2014-Jul-20 11:28N 46°51' E 031°59'0 0.0
2014-Jul-20 10:31N 46°51' E 031°59'0 0.0
2014-Jul-20 09:31N 46°51' E 031°59'0 0.0
2014-Jul-20 08:31N 46°51' E 031°59'0 0.0
2014-Jul-20 07:31N 46°51' E 031°59'0 0.0
2014-Jul-20 06:28N 46°51' E 031°59'0 0.0
2014-Jul-20 05:31N 46°51' E 031°59'0 0.0
2014-Jul-20 04:31N 46°51' E 031°59'0 0.0
2014-Jul-20 03:31N 46°51' E 031°59'0 0.0
2014-Jul-20 02:31N 46°51' E 031°59'0 0.0
2014-Jul-20 01:31N 46°51' E 031°59'0 0.0
2014-Jul-20 00:31N 46°51' E 031°59'0 0.0
2014-Jul-19 23:31N 46°51' E 031°59'0 0.0
2014-Jul-19 22:31N 46°51' E 031°59'0 0.0
2014-Jul-19 21:31N 46°51' E 031°59'0 0.0
2014-Jul-19 20:31N 46°51' E 031°59'0 0.0
2014-Jul-19 18:07N 46°51' E 031°59'0 0.0
2014-Jul-19 17:31N 46°51' E 031°59'0 0.0
2014-Jul-19 16:31N 46°51' E 031°59'0 0.0
2014-Jul-19 15:31N 46°51' E 031°59'0 0.0
2014-Jul-19 14:31N 46°51' E 031°59'0 0.0
2014-Jul-19 13:31N 46°51' E 031°59'0 0.0
2014-Jul-19 12:31N 46°51' E 031°59'0 0.0
2014-Jul-19 11:31N 46°51' E 031°59'0 0.0
2014-Jul-19 10:31N 46°51' E 031°59'0 0.0
2014-Jul-19 09:31N 46°51' E 031°59'0 0.0
2014-Jul-19 08:31N 46°51' E 031°59'0 0.0
2014-Jul-19 07:31N 46°51' E 031°59'0 0.0
2014-Jul-19 06:31N 46°51' E 031°59'0 0.0
2014-Jul-19 05:31N 46°51' E 031°59'0 0.0
2014-Jul-19 04:31N 46°51' E 031°59'0 0.0
2014-Jul-19 03:31N 46°51' E 031°59'0 0.0
2014-Jul-19 02:31N 46°51' E 031°59'0 0.0
2014-Jul-19 01:31N 46°51' E 031°59'0 0.0
2014-Jul-19 00:31N 46°51' E 031°59'0 0.0
2014-Jul-18 23:31N 46°51' E 031°59'0 0.0
2014-Jul-18 22:31N 46°51' E 031°59'0 0.0
2014-Jul-18 21:31N 46°51' E 031°59'0 0.0
2014-Jul-18 20:31N 46°51' E 031°59'0 0.0
2014-Jul-18 19:31N 46°51' E 031°59'0 0.0
2014-Jul-18 18:31N 46°51' E 031°59'0 0.0
2014-Jul-18 17:28N 46°51' E 031°59'0 0.0
2014-Jul-18 16:31N 46°51' E 031°59'0 0.0
2014-Jul-18 15:31N 46°51' E 031°59'0 0.0
2014-Jul-18 14:31N 46°51' E 031°59'0 0.0
2014-Jul-18 13:31N 46°51' E 031°59'0 0.0
2014-Jul-18 12:31N 46°51' E 031°59'0 0.0
2014-Jul-18 11:31N 46°51' E 031°59'0 0.0
2014-Jul-18 10:31N 46°51' E 031°59'0 0.0
2014-Jul-18 09:31N 46°51' E 031°59'0 0.0
2014-Jul-18 08:31N 46°51' E 031°59'0 0.0
2014-Jul-18 07:31N 46°51' E 031°59'0 0.0
2014-Jul-18 06:31N 46°51' E 031°59'0 0.0
2014-Jul-18 05:31N 46°51' E 031°59'0 0.0
2014-Jul-18 04:31N 46°51' E 031°59'0 0.0
2014-Jul-18 03:31N 46°51' E 031°59'0 0.0
2014-Jul-18 02:31N 46°51' E 031°59'0 0.0
2014-Jul-18 01:31N 46°51' E 031°59'0 0.0
2014-Jul-18 00:31N 46°51' E 031°59'0 0.0
2014-Jul-17 23:31N 46°51' E 031°59'0 0.0
2014-Jul-17 22:31N 46°51' E 031°59'0 0.0
2014-Jul-17 21:31N 46°51' E 031°59'0 0.0
2014-Jul-17 20:31N 46°51' E 031°59'0 0.0
2014-Jul-17 19:31N 46°51' E 031°59'0 0.0
2014-Jul-17 18:31N 46°51' E 031°59'0 0.0
2014-Jul-17 17:28N 46°51' E 031°59'0 0.0
2014-Jul-17 16:31N 46°51' E 031°59'0 0.0
2014-Jul-17 15:28N 46°51' E 031°59'0 0.0
2014-Jul-17 14:28N 46°51' E 031°59'0 0.0
2014-Jul-17 13:31N 46°51' E 031°59'0 0.0
2014-Jul-17 11:25N 46°51' E 031°59'0 0.0
2014-Jul-17 10:28N 46°51' E 031°59'0 0.0
2014-Jul-17 09:31N 46°51' E 031°59'0 0.0
2014-Jul-17 08:31N 46°51' E 031°59'0 0.0
2014-Jul-17 07:28N 46°51' E 031°59'0 0.0
2014-Jul-17 06:31N 46°51' E 031°59'0 0.0
2014-Jul-17 05:31N 46°51' E 031°59'0 0.0
2014-Jul-17 04:31N 46°51' E 031°59'0 0.0
2014-Jul-17 03:31N 46°51' E 031°59'0 0.0
2014-Jul-17 02:31N 46°51' E 031°59'0 0.0
2014-Jul-17 01:31N 46°51' E 031°59'0 0.0
2014-Jul-17 00:31N 46°51' E 031°59'0 0.0
2014-Jul-16 23:31N 46°51' E 031°59'0 0.0
2014-Jul-16 22:31N 46°51' E 031°59'0 0.0
2014-Jul-16 21:31N 46°51' E 031°59'0 0.0
2014-Jul-16 20:31N 46°51' E 031°59'0 0.0
2014-Jul-16 19:31N 46°51' E 031°59'0 0.0
2014-Jul-16 18:31N 46°51' E 031°59'0 0.0
2014-Jul-16 17:28N 46°51' E 031°59'0 0.0
2014-Jul-16 16:31N 46°51' E 031°59'0 0.0
2014-Jul-16 15:31N 46°51' E 031°59'0 0.0
2014-Jul-16 14:31N 46°51' E 031°59'0 0.0
2014-Jul-16 13:31N 46°51' E 031°59'0 0.0
2014-Jul-16 12:28N 46°51' E 031°59'0 0.0
2014-Jul-16 11:28N 46°51' E 031°59'0 0.0
2014-Jul-16 10:31N 46°51' E 031°59'0 0.0
2014-Jul-16 09:28N 46°51' E 031°59'0 0.0
2014-Jul-16 08:31N 46°51' E 031°59'0 0.0
2014-Jul-16 07:31N 46°51' E 031°59'0 0.0
2014-Jul-16 06:28N 46°51' E 031°59'0 0.0
2014-Jul-16 05:31N 46°51' E 031°59'0 0.0
2014-Jul-16 04:28N 46°51' E 031°59'0 0.0
2014-Jul-16 03:31N 46°51' E 031°59'0 0.0
2014-Jul-16 02:31N 46°51' E 031°59'0 0.0
2014-Jul-16 01:31N 46°51' E 031°59'0 0.0
2014-Jul-16 00:31N 46°51' E 031°59'0 0.0
2014-Jul-15 23:31N 46°51' E 031°59'0 0.0
2014-Jul-15 22:31N 46°51' E 031°59'0 0.0
2014-Jul-15 21:31N 46°51' E 031°59'0 0.0
2014-Jul-15 20:31N 46°51' E 031°59'0 0.0
2014-Jul-15 19:31N 46°51' E 031°59'0 0.0
2014-Jul-15 18:31N 46°51' E 031°59'0 0.0
2014-Jul-15 17:31N 46°51' E 031°59'0 0.0
2014-Jul-15 16:31N 46°51' E 031°59'0 0.0
2014-Jul-15 15:31N 46°51' E 031°59'0 0.0
2014-Jul-15 14:28N 46°51' E 031°59'0 0.0
2014-Jul-15 13:31N 46°51' E 031°59'0 0.0
2014-Jul-15 12:31N 46°51' E 031°59'0 0.0
2014-Jul-15 11:31N 46°51' E 031°59'0 0.2
2014-Jul-15 10:33N 46°51' E 031°59'6 5.7
2014-Jul-15 09:33N 46°47' E 031°53'10 9.7
2014-Jul-15 08:33N 46°37' E 031°52'6 5.8
2014-Jul-15 07:27N 46°36' E 031°43'0 0.0
2014-Jul-15 06:32N 46°36' E 031°43'2 1.7
2014-Jul-15 05:33N 46°36' E 031°40'1110.7
2014-Jul-15 04:33N 46°35' E 031°25'1313.1
2014-Jul-15 03:33N 46°35' E 031°06'7 6.3
2014-Jul-15 02:22N 46°31' E 030°57'13 2.5
2014-Jul-14 21:24N 46°19' E 031°03'0 0.0
2014-Jul-14 14:24N 46°19' E 031°03'0 0.0
2014-Jul-13 20:30N 46°19' E 031°03'0 0.1
2014-Jul-13 19:33N 46°19' E 031°03'5 4.6
2014-Jul-13 18:32N 46°15' E 031°06'1212.0
2014-Jul-13 17:33N 46°03' E 031°09'  
Track history (hours):
 
Tides and Currents Weather Stations Pressure Air Temp Water Temp Dewpoint Dewpoint Depression Visibility Wind Speed Wind Dir Waves Ship Positions

Zarechensk

Last reported at 2014-Jul-23 03:18 UTC. Time now 2014-Jul-23 22:09 UTC.
Position N 40°53' E 028°39'.

Length 180 m; draft 9.8 m.

MMSI: 205561000.

Date/timePositionNaut miles runAvg speedWind from/ knotsBaromVisibWave heightAir tempDewpointWater temp
2014-Jul-23 03:18N 40°53' E 028°39'1111.5
2014-Jul-23 02:18N 40°56' E 028°53'3 4.4
2014-Jul-23 01:33N 40°58' E 028°57'232 8.2
2014-Jul-21 21:24N 44°40' E 030°28'910.9
2014-Jul-21 20:33N 44°49' E 030°32'310.9
2014-Jul-21 20:18N 44°51' E 030°33'810.8
2014-Jul-21 19:33N 44°59' E 030°36'1110.7
2014-Jul-21 18:33N 45°09' E 030°40'1111.0
2014-Jul-21 17:33N 45°20' E 030°45'4911.0
2014-Jul-21 13:05N 46°08' E 031°04'37 6.5
2014-Jul-21 07:24N 46°36' E 031°39'910.2
2014-Jul-21 06:33N 46°37' E 031°51'8 8.2
2014-Jul-21 05:33N 46°44' E 031°55'5 0.9
2014-Jul-20 23:29N 46°50' E 031°56'0 0.0
2014-Jul-20 22:32N 46°50' E 031°55'0 0.1
2014-Jul-20 21:32N 46°50' E 031°56'0 0.1
2014-Jul-20 20:32N 46°50' E 031°56'0 0.0
2014-Jul-20 19:32N 46°50' E 031°56'1 1.5
2014-Jul-20 18:33N 46°51' E 031°57'1 1.1
2014-Jul-20 17:33N 46°51' E 031°59'0 0.0
2014-Jul-20 14:16N 46°51' E 031°59'0 0.0
2014-Jul-20 13:31N 46°51' E 031°59'0 0.0
2014-Jul-20 12:31N 46°51' E 031°59'0 0.0
2014-Jul-20 11:28N 46°51' E 031°59'0 0.0
2014-Jul-20 10:31N 46°51' E 031°59'0 0.0
2014-Jul-20 09:31N 46°51' E 031°59'0 0.0
2014-Jul-20 08:31N 46°51' E 031°59'0 0.0
2014-Jul-20 07:31N 46°51' E 031°59'0 0.0
2014-Jul-20 06:28N 46°51' E 031°59'0 0.0
2014-Jul-20 05:31N 46°51' E 031°59'0 0.0
2014-Jul-20 04:31N 46°51' E 031°59'0 0.0
2014-Jul-20 03:31N 46°51' E 031°59'0 0.0
2014-Jul-20 02:31N 46°51' E 031°59'0 0.0
2014-Jul-20 01:31N 46°51' E 031°59'0 0.0
2014-Jul-20 00:31N 46°51' E 031°59'0 0.0
2014-Jul-19 23:31N 46°51' E 031°59'0 0.0
2014-Jul-19 22:31N 46°51' E 031°59'0 0.0
2014-Jul-19 21:31N 46°51' E 031°59'0 0.0
2014-Jul-19 20:31N 46°51' E 031°59'0 0.0
2014-Jul-19 18:07N 46°51' E 031°59'0 0.0
2014-Jul-19 17:31N 46°51' E 031°59'0 0.0
2014-Jul-19 16:31N 46°51' E 031°59'0 0.0
2014-Jul-19 15:31N 46°51' E 031°59'0 0.0
2014-Jul-19 14:31N 46°51' E 031°59'0 0.0
2014-Jul-19 13:31N 46°51' E 031°59'0 0.0
2014-Jul-19 12:31N 46°51' E 031°59'0 0.0
2014-Jul-19 11:31N 46°51' E 031°59'0 0.0
2014-Jul-19 10:31N 46°51' E 031°59'0 0.0
2014-Jul-19 09:31N 46°51' E 031°59'0 0.0
2014-Jul-19 08:31N 46°51' E 031°59'0 0.0
2014-Jul-19 07:31N 46°51' E 031°59'0 0.0
2014-Jul-19 06:31N 46°51' E 031°59'0 0.0
2014-Jul-19 05:31N 46°51' E 031°59'0 0.0
2014-Jul-19 04:31N 46°51' E 031°59'0 0.0
2014-Jul-19 03:31N 46°51' E 031°59'0 0.0
2014-Jul-19 02:31N 46°51' E 031°59'0 0.0
2014-Jul-19 01:31N 46°51' E 031°59'0 0.0
2014-Jul-19 00:31N 46°51' E 031°59'0 0.0
2014-Jul-18 23:31N 46°51' E 031°59'0 0.0
2014-Jul-18 22:31N 46°51' E 031°59'0 0.0
2014-Jul-18 21:31N 46°51' E 031°59'0 0.0
2014-Jul-18 20:31N 46°51' E 031°59'0 0.0
2014-Jul-18 19:31N 46°51' E 031°59'0 0.0
2014-Jul-18 18:31N 46°51' E 031°59'0 0.0
2014-Jul-18 17:28N 46°51' E 031°59'0 0.0
2014-Jul-18 16:31N 46°51' E 031°59'0 0.0
2014-Jul-18 15:31N 46°51' E 031°59'0 0.0
2014-Jul-18 14:31N 46°51' E 031°59'0 0.0
2014-Jul-18 13:31N 46°51' E 031°59'0 0.0
2014-Jul-18 12:31N 46°51' E 031°59'0 0.0
2014-Jul-18 11:31N 46°51' E 031°59'0 0.0
2014-Jul-18 10:31N 46°51' E 031°59'0 0.0
2014-Jul-18 09:31N 46°51' E 031°59'0 0.0
2014-Jul-18 08:31N 46°51' E 031°59'0 0.0
2014-Jul-18 07:31N 46°51' E 031°59'0 0.0
2014-Jul-18 06:31N 46°51' E 031°59'0 0.0
2014-Jul-18 05:31N 46°51' E 031°59'0 0.0
2014-Jul-18 04:31N 46°51' E 031°59'0 0.0
2014-Jul-18 03:31N 46°51' E 031°59'0 0.0
2014-Jul-18 02:31N 46°51' E 031°59'0 0.0
2014-Jul-18 01:31N 46°51' E 031°59'0 0.0
2014-Jul-18 00:31N 46°51' E 031°59'0 0.0
2014-Jul-17 23:31N 46°51' E 031°59'0 0.0
2014-Jul-17 22:31N 46°51' E 031°59'0 0.0
2014-Jul-17 21:31N 46°51' E 031°59'0 0.0
2014-Jul-17 20:31N 46°51' E 031°59'0 0.0
2014-Jul-17 19:31N 46°51' E 031°59'0 0.0
2014-Jul-17 18:31N 46°51' E 031°59'0 0.0
2014-Jul-17 17:28N 46°51' E 031°59'0 0.0
2014-Jul-17 16:31N 46°51' E 031°59'0 0.0
2014-Jul-17 15:28N 46°51' E 031°59'0 0.0
2014-Jul-17 14:28N 46°51' E 031°59'0 0.0
2014-Jul-17 13:31N 46°51' E 031°59'0 0.0
2014-Jul-17 11:25N 46°51' E 031°59'0 0.0
2014-Jul-17 10:28N 46°51' E 031°59'0 0.0
2014-Jul-17 09:31N 46°51' E 031°59'0 0.0
2014-Jul-17 08:31N 46°51' E 031°59'0 0.0
2014-Jul-17 07:28N 46°51' E 031°59'0 0.0
2014-Jul-17 06:31N 46°51' E 031°59'0 0.0
2014-Jul-17 05:31N 46°51' E 031°59'0 0.0
2014-Jul-17 04:31N 46°51' E 031°59'0 0.0
2014-Jul-17 03:31N 46°51' E 031°59'0 0.0
2014-Jul-17 02:31N 46°51' E 031°59'0 0.0
2014-Jul-17 01:31N 46°51' E 031°59'0 0.0
2014-Jul-17 00:31N 46°51' E 031°59'0 0.0
2014-Jul-16 23:31N 46°51' E 031°59'0 0.0
2014-Jul-16 22:31N 46°51' E 031°59'0 0.0
2014-Jul-16 21:31N 46°51' E 031°59'0 0.0
2014-Jul-16 20:31N 46°51' E 031°59'0 0.0
2014-Jul-16 19:31N 46°51' E 031°59'0 0.0
2014-Jul-16 18:31N 46°51' E 031°59'0 0.0
2014-Jul-16 17:28N 46°51' E 031°59'0 0.0
2014-Jul-16 16:31N 46°51' E 031°59'0 0.0
2014-Jul-16 15:31N 46°51' E 031°59'0 0.0
2014-Jul-16 14:31N 46°51' E 031°59'0 0.0
2014-Jul-16 13:31N 46°51' E 031°59'0 0.0
2014-Jul-16 12:28N 46°51' E 031°59'0 0.0
2014-Jul-16 11:28N 46°51' E 031°59'0 0.0
2014-Jul-16 10:31N 46°51' E 031°59'0 0.0
2014-Jul-16 09:28N 46°51' E 031°59'0 0.0
2014-Jul-16 08:31N 46°51' E 031°59'0 0.0
2014-Jul-16 07:31N 46°51' E 031°59'0 0.0
2014-Jul-16 06:28N 46°51' E 031°59'0 0.0
2014-Jul-16 05:31N 46°51' E 031°59'0 0.0
2014-Jul-16 04:28N 46°51' E 031°59'0 0.0
2014-Jul-16 03:31N 46°51' E 031°59'0 0.0
2014-Jul-16 02:31N 46°51' E 031°59'0 0.0
2014-Jul-16 01:31N 46°51' E 031°59'0 0.0
2014-Jul-16 00:31N 46°51' E 031°59'0 0.0
2014-Jul-15 23:31N 46°51' E 031°59'0 0.0
2014-Jul-15 22:31N 46°51' E 031°59'0 0.0
2014-Jul-15 21:31N 46°51' E 031°59'0 0.0
2014-Jul-15 20:31N 46°51' E 031°59'0 0.0
2014-Jul-15 19:31N 46°51' E 031°59'0 0.0
2014-Jul-15 18:31N 46°51' E 031°59'0 0.0
2014-Jul-15 17:31N 46°51' E 031°59'0 0.0
2014-Jul-15 16:31N 46°51' E 031°59'0 0.0
2014-Jul-15 15:31N 46°51' E 031°59'0 0.0
2014-Jul-15 14:28N 46°51' E 031°59'0 0.0
2014-Jul-15 13:31N 46°51' E 031°59'0 0.0
2014-Jul-15 12:31N 46°51' E 031°59'0 0.0
2014-Jul-15 11:31N 46°51' E 031°59'0 0.2
2014-Jul-15 10:33N 46°51' E 031°59'6 5.7
2014-Jul-15 09:33N 46°47' E 031°53'10 9.7
2014-Jul-15 08:33N 46°37' E 031°52'6 5.8
2014-Jul-15 07:27N 46°36' E 031°43'0 0.0
2014-Jul-15 06:32N 46°36' E 031°43'2 1.7
2014-Jul-15 05:33N 46°36' E 031°40'1110.7
2014-Jul-15 04:33N 46°35' E 031°25'1313.1
2014-Jul-15 03:33N 46°35' E 031°06'7 6.3
2014-Jul-15 02:22N 46°31' E 030°57'13 2.5
2014-Jul-14 21:24N 46°19' E 031°03'0 0.0
2014-Jul-14 14:24N 46°19' E 031°03'0 0.0
2014-Jul-13 20:30N 46°19' E 031°03'0 0.1
2014-Jul-13 19:33N 46°19' E 031°03'5 4.6
2014-Jul-13 18:32N 46°15' E 031°06'1212.0
2014-Jul-13 17:33N 46°03' E 031°09'  

Dump ship's entire track history